Wind_Speed
28 29 30 30 31 32 32 31 32 31 31 30 30 28 27 26 25 24 27 28 28 29 28 28 27 25 25 24 23 22 21 20 19 18 18 17 16 15 15 14 13 12 10
29 30 30 31 33 33 32 32 32 32 31 30 30 30 28 27 25 25 25 27 28 30 30 30 30 28 27 26 26 25 24 23 22 21 20 20 19 18 17 16 15 14 13
30 31 32 32 33 33 33 33 32 31 31 31 31 30 30 29 27 26 26 27 27 30 31 32 32 31 30 29 28 27 26 26 25 24 23 22 21 20 19 18 17 16 15
31 32 32 33 33 34 34 34 33 32 32 32 31 31 31 30 29 28 28 28 28 29 31 32 33 34 32 31 30 29 28 27 26 26 25 25 24 23 22 20 19 19 18
32 33 33 33 33 34 34 34 34 33 33 33 32 32 31 31 30 29 29 29 28 28 30 32 33 35 34 33 32 31 31 29 28 28 27 27 26 25 23 23 22 21 21
33 34 34 34 34 34 34 34 34 34 34 34 33 33 32 31 31 31 31 30 29 29 30 32 33 35 36 35 34 33 32 31 30 29 29 28 28 27 26 25 24 23 23
34 34 34 34 34 34 34 34 34 34 35 34 34 33 33 32 32 32 32 31 30 30 31 32 34 35 36 37 36 35 34 33 32 31 30 29 29 29 28 27 26 25 25
33 33 33 34 34 34 34 34 34 35 35 35 34 34 33 33 34 33 33 33 32 31 31 32 34 35 36 38 38 37 36 35 34 33 31 31 30 30 29 29 28 28 27
32 32 32 33 33 33 34 34 34 34 35 35 35 34 34 34 34 35 34 34 34 32 32 33 34 36 36 38 39 38 37 36 35 34 33 33 32 31 30 30 29 28 28
32 32 33 33 33 34 34 34 34 34 34 35 35 35 35 34 35 35 35 35 35 34 34 34 35 37 38 38 39 39 38 37 36 35 35 34 34 32 31 30 30 29 28
32 32 32 33 33 34 34 35 34 34 35 35 36 36 35 35 35 35 35 35 35 35 35 35 35 37 39 39 39 39 39 39 39 37 36 35 34 33 32 30 29 29 29
33 33 33 33 33 34 34 35 35 35 35 35 36 36 36 35 35 35 35 36 37 36 36 36 36 38 39 39 39 40 40 41 40 39 38 36 35 34 33 31 30 30 29
33 34 34 34 34 34 35 35 35 36 36 36 36 36 37 36 36 36 35 36 37 37 37 37 38 39 40 41 40 41 41 42 41 40 39 38 36 35 34 32 30 30 28
33 34 35 35 35 36 35 35 36 36 36 37 37 37 37 38 38 37 37 37 37 38 38 38 39 39 40 42 41 42 43 42 42 41 40 39 37 36 34 32 31 30 28
35 35 35 35 36 36 36 36 36 36 37 37 38 38 39 39 39 39 38 38 38 39 39 39 39 40 40 41 42 43 44 44 43 42 41 40 38 37 35 34 32 31 29
36 36 36 36 36 36 36 36 36 36 37 38 38 39 40 40 40 40 40 40 40 40 40 41 40 41 41 40 42 43 44 44 44 43 42 41 39 38 36 34 33 31 29
38 37 37 37 37 37 37 37 37 37 37 38 39 39 39 40 41 41 42 42 41 41 40 41 42 42 42 42 43 44 45 45 44 43 43 42 40 39 37 35 33 31 30
39 39 38 37 37 37 37 37 37 37 37 38 39 39 40 41 42 42 42 43 43 43 42 42 43 43 44 43 44 45 46 46 45 45 44 43 41 40 38 37 34 32 30
40 40 38 37 37 36 37 37 37 36 37 37 38 39 40 41 42 43 44 44 45 45 44 43 44 44 44 45 45 45 47 48 47 46 45 45 44 41 40 38 35 33 31
41 40 39 38 37 37 37 36 36 36 36 37 38 39 40 41 42 44 45 45 46 47 47 46 46 46 46 46 45 46 47 48 48 48 47 46 45 43 41 39 37 35 32
41 40 39 39 38 37 37 36 36 37 37 37 37 38 40 41 42 44 45 46 47 48 48 48 49 49 48 47 47 46 47 49 50 50 50 48 46 44 43 41 38 36 33
42 41 40 39 38 38 37 37 37 37 37 37 38 39 40 41 42 44 45 47 48 49 49 49 50 51 49 51 49 46 47 48 50 51 51 50 48 46 44 42 40 38 35
43 42 41 40 39 38 38 38 37 37 36 37 37 38 39 40 41 43 45 47 49 51 52 52 51 52 51 52 52 49 47 47 50 52 53 52 51 48 46 44 42 39 36
43 42 41 40 39 39 38 37 37 36 36 36 37 38 38 39 40 42 44 46 49 52 53 54 53 54 55 53 53 51 49 48 50 52 54 53 52 50 48 46 43 41 38
43 42 41 40 39 39 38 37 36 35 35 35 36 37 37 38 39 41 43 45 48 51 54 55 56 56 57 57 55 53 52 51 50 51 53 54 53 51 50 48 45 42 39
43 42 41 41 40 38 37 36 36 35 34 33 34 34 35 36 37 39 42 44 46 50 54 56 57 57 58 59 56 55 54 53 51 50 52 54 55 53 51 49 47 44 41
Wind_Direction
280 283 285 285 284 285 284 285 284 282 282 280 279 281 282 278 272 264 256 251 247 242 240 238 236 234 231 227 225 224 223 222 221 222 220 219 220 221 223 223 223 224 224
283 283 283 284 283 283 282 282 282 281 279 277 276 278 278 276 273 266 263 256 248 243 242 239 237 234 232 229 228 226 225 225 224 224 223 222 222 222 223 224 224 225 225
288 286 285 284 284 284 282 281 280 278 276 274 273 274 275 274 272 270 265 261 253 245 242 239 238 235 232 230 228 227 227 227 226 225 225 224 224 223 223 224 226 226 226
290 289 287 286 285 284 282 280 278 276 274 272 271 271 271 270 269 267 265 261 256 249 242 240 240 236 231 230 229 228 228 228 227 227 226 226 226 225 225 226 227 228 228
292 290 288 286 284 283 281 279 277 275 273 271 269 268 268 266 264 263 261 257 254 250 244 241 239 235 231 230 229 228 227 227 228 228 227 226 226 227 228 228 228 229 230
293 292 290 288 286 284 281 279 276 274 272 271 269 266 265 264 261 260 258 255 252 250 246 242 238 236 233 230 228 227 227 226 228 227 227 227 227 228 229 229 228 230 231
296 294 292 289 287 285 282 280 278 276 273 271 268 265 262 261 259 257 256 253 252 249 246 242 238 234 232 229 228 228 227 226 226 226 227 228 229 230 231 230 230 231 232
297 295 293 290 288 286 284 282 279 276 274 271 269 265 262 260 259 256 254 252 250 247 244 241 235 233 231 228 226 226 225 225 225 225 226 229 230 231 232 232 232 232 232
298 297 295 292 289 287 284 282 280 277 274 272 269 266 263 260 258 257 254 250 248 245 242 240 235 231 229 226 225 224 223 223 224 224 226 229 231 232 232 231 231 232 233
299 296 295 293 290 287 285 282 280 277 274 272 269 267 263 260 258 255 254 250 247 243 241 238 235 230 228 227 226 225 224 223 223 223 224 228 230 230 231 231 231 232 234
301 299 297 294 291 288 285 283 280 277 274 271 269 266 263 260 257 254 252 250 247 242 240 236 234 230 228 228 226 224 224 223 223 223 224 226 228 229 230 230 230 231 233
305 303 300 297 294 290 286 283 280 276 273 270 268 265 263 260 257 254 251 247 245 242 239 235 233 231 228 227 225 224 224 223 223 224 224 224 226 228 228 229 230 230 232
309 306 303 299 296 293 289 285 280 276 272 269 267 264 262 259 256 253 250 246 244 241 238 234 232 229 228 227 227 225 224 222 223 224 224 224 225 226 226 227 229 229 230
312 309 306 302 298 294 290 286 281 277 272 269 266 263 260 258 255 252 249 246 242 240 238 234 232 230 228 227 227 225 224 222 222 223 223 223 224 224 224 225 227 227 228
315 312 308 304 300 296 292 287 282 277 273 269 265 262 259 257 254 251 248 244 241 239 237 235 232 230 228 227 226 225 222 222 222 222 222 223 223 224 223 224 225 225 225
318 314 309 305 301 297 292 288 283 278 274 270 266 262 258 255 252 250 247 244 241 237 235 234 232 230 228 226 225 223 221 221 222 221 221 221 222 222 222 222 223 223 224
319 315 311 306 302 297 292 289 284 280 276 271 268 263 258 254 251 249 247 244 241 237 234 233 232 231 227 225 223 221 221 221 220 220 220 220 219 220 220 220 220 221 221
320 316 312 307 303 299 295 291 286 281 277 273 268 264 259 255 251 249 247 244 241 237 233 231 231 231 228 226 222 220 219 219 218 218 218 218 217 217 218 218 218 219 219
321 317 313 309 305 300 296 292 287 282 278 273 269 265 260 255 252 249 246 243 241 238 234 230 229 229 228 225 223 221 219 218 217 217 216 216 216 216 216 216 216 217 216
322 318 314 311 307 303 299 294 289 285 280 275 270 266 261 257 252 249 246 243 240 237 234 230 228 227 227 224 222 221 219 217 216 215 215 216 215 214 214 214 215 214 214
322 318 315 312 309 305 301 296 292 287 282 277 272 267 263 258 253 249 246 242 239 236 233 230 228 227 225 223 221 221 219 217 216 215 215 214 213 213 213 213 213 214 214
321 319 316 313 310 307 302 298 293 289 284 279 273 269 264 259 255 250 245 242 238 235 232 230 227 226 225 223 220 220 220 218 216 215 214 213 212 212 212 213 213 213 213
321 319 317 314 311 308 305 301 296 292 287 282 276 271 266 260 256 251 245 241 238 235 231 229 226 224 223 223 220 218 219 219 217 215 214 212 211 211 212 212 212 212 212
322 320 318 316 313 310 307 304 299 295 289 284 278 272 266 262 257 252 247 242 238 234 231 229 226 224 222 221 220 218 216 219 218 215 213 212 211 210 211 211 211 211 212
323 321 320 318 315 313 309 305 301 298 294 288 281 274 267 262 257 252 247 242 237 233 230 227 225 223 222 220 218 217 216 216 218 216 213 212 210 210 210 211 211 211 212
324 323 321 320 318 315 312 308 304 301 297 291 285 278 270 263 257 252 246 240 237 233 230 227 225 222 222 220 218 217 216 215 216 216 213 212 210 210 210 211 211 212 212
Height
5860 5859 5859 5858 5857 5856 5856 5855 5855 5854 5854 5853 5853 5854 5854 5855 5856 5858 5860 5861 5864 5867 5869 5872 5875 5878 5880 5883 5886 5889 5891 5894 5896 5899 5901 5903 5905 5907 5910 5911 5913 5915 5916
5853 5852 5851 5850 5850 5849 5848 5849 5848 5847 5847 5846 5847 5847 5848 5848 5849 5851 5853 5854 5857 5860 5863 5866 5869 5872 5875 5878 5881 5884 5887 5890 5892 5895 5897 5900 5902 5904 5907 5909 5911 5913 5915
5846 5845 5844 5843 5842 5841 5841 5841 5840 5840 5840 5840 5840 5840 5841 5842 5843 5844 5846 5847 5849 5852 5856 5859 5862 5865 5868 5872 5875 5878 5882 5885 5888 5891 5893 5896 5898 5901 5903 5906 5908 5910 5912
5839 5838 5836 5836 5834 5834 5833 5832 5832 5832 5832 5832 5833 5833 5834 5834 5835 5837 5838 5840 5842 5845 5848 5851 5854 5857 5861 5864 5868 5872 5876 5879 5882 5886 5889 5892 5894 5897 5900 5902 5905 5907 5910
5832 5830 5829 5827 5826 5825 5824 5824 5824 5823 5823 5823 5824 5825 5826 5827 5828 5829 5831 5832 5834 5837 5840 5843 5846 5850 5853 5857 5861 5865 5869 5873 5877 5880 5884 5887 5890 5893 5896 5898 5901 5904 5906
5824 5822 5820 5818 5817 5816 5815 5815 5814 5814 5814 5815 5815 5817 5818 5818 5820 5821 5823 5824 5826 5829 5831 5834 5838 5842 5846 5850 5854 5858 5862 5866 5870 5874 5878 5882 5885 5888 5891 5894 5897 5900 5903
5816 5814 5812 5810 5808 5807 5806 5805 5805 5805 5805 5805 5806 5808 5809 5810 5811 5813 5814 5816 5818 5821 5823 5826 5829 5833 5838 5842 5846 5850 5855 5859 5863 5868 5872 5876 5879 5883 5886 5889 5892 5895 5898
5807 5805 5803 5801 5799 5798 5796 5796 5795 5795 5795 5795 5796 5798 5799 5802 5802 5804 5805 5807 5810 5812 5814 5817 5821 5825 5829 5833 5838 5843 5847 5852 5857 5861 5866 5870 5873 5877 5880 5883 5887 5890 5893
5799 5797 5795 5793 5790 5789 5787 5786 5786 5786 5785 5785 5786 5788 5789 5791 5793 5795 5796 5798 5801 5803 5806 5809 5813 5817 5821 5825 5830 5835 5840 5845 5850 5854 5859 5863 5867 5871 5874 5878 5881 5885 5888
5791 5789 5786 5784 5782 5780 5778 5777 5776 5776 5776 5776 5776 5777 5779 5781 5783 5785 5787 5788 5791 5794 5797 5801 5804 5808 5813 5817 5822 5827 5832 5838 5842 5847 5852 5856 5861 5865 5869 5872 5876 5879 5883
5782 5780 5777 5775 5772 5770 5768 5767 5766 5766 5766 5766 5766 5767 5768 5770 5772 5775 5777 5779 5782 5785 5788 5792 5796 5800 5804 5809 5814 5819 5825 5830 5835 5840 5845 5849 5854 5858 5863 5866 5870 5874 5877
5774 5771 5768 5765 5763 5761 5759 5757 5756 5755 5755 5755 5756 5756 5758 5760 5762 5764 5767 5769 5772 5776 5779 5783 5787 5791 5796 5801 5806 5811 5816 5822 5827 5833 5838 5843 5848 5852 5856 5861 5864 5868 5872
5765 5762 5758 5755 5753 5750 5748 5747 5745 5745 5745 5745 5745 5746 5747 5749 5751 5754 5757 5760 5762 5766 5770 5774 5778 5782 5787 5792 5798 5803 5808 5814 5819 5825 5831 5836 5841 5846 5850 5855 5859 5863 5866
5757 5753 5749 5745 5742 5740 5738 5736 5734 5734 5733 5734 5734 5735 5736 5738 5740 5743 5746 5749 5753 5756 5760 5765 5769 5773 5778 5783 5789 5794 5800 5805 5811 5817 5823 5829 5834 5839 5844 5849 5853 5857 5861
5748 5743 5739 5735 5732 5729 5727 5725 5723 5722 5721 5722 5722 5723 5725 5726 5728 5731 5735 5739 5743 5746 5750 5755 5759 5763 5768 5773 5779 5785 5791 5797 5803 5809 5815 5821 5827 5833 5838 5843 5847 5851 5855
5739 5734 5730 5726 5722 5719 5716 5714 5712 5711 5710 5710 5710 5711 5713 5714 5717 5719 5723 5727 5731 5736 5740 5745 5749 5753 5758 5764 5769 5776 5782 5788 5795 5801 5807 5814 5820 5826 5831 5836 5841 5845 5850
5730 5725 5720 5715 5711 5708 5704 5702 5700 5699 5698 5697 5698 5699 5700 5702 5705 5707 5711 5715 5719 5724 5730 5734 5738 5743 5748 5754 5760 5766 5773 5779 5786 5793 5799 5806 5812 5818 5824 5830 5835 5840 5844
5721 5715 5710 5705 5700 5696 5693 5690 5688 5686 5685 5685 5685 5686 5687 5689 5692 5695 5699 5703 5707 5712 5719 5724 5728 5733 5738 5744 5750 5757 5763 5770 5777 5784 5791 5797 5804 5811 5817 5823 5829 5834 5839
5711 5705 5700 5694 5690 5686 5682 5678 5676 5674 5673 5672 5672 5672 5674 5676 5679 5682 5685 5690 5695 5700 5706 5713 5718 5722 5728 5734 5740 5747 5753 5760 5768 5775 5782 5789 5796 5804 5810 5817 5822 5828 5833
5701 5695 5689 5684 5679 5674 5670 5666 5664 5662 5660 5659 5658 5659 5660 5662 5664 5668 5672 5676 5681 5687 5693 5700 5706 5712 5718 5724 5730 5737 5744 5750 5758 5765 5773 5781 5788 5796 5803 5810 5816 5822 5827
5692 5685 5679 5673 5668 5663 5659 5655 5652 5649 5647 5645 5645 5645 5645 5647 5649 5653 5657 5662 5667 5673 5680 5687 5694 5700 5707 5713 5720 5727 5734 5740 5748 5755 5764 5772 5780 5788 5795 5803 5809 5815 5821
5682 5675 5669 5663 5657 5652 5647 5643 5639 5636 5633 5632 5631 5630 5631 5632 5634 5637 5642 5647 5652 5659 5666 5673 5681 5688 5695 5702 5709 5716 5723 5731 5739 5747 5755 5763 5771 5780 5788 5795 5802 5809 5815
5672 5665 5659 5652 5646 5641 5635 5630 5626 5623 5620 5618 5616 5616 5616 5617 5619 5622 5626 5631 5637 5644 5652 5660 5667 5675 5683 5691 5698 5706 5713 5721 5729 5737 5745 5753 5762 5771 5780 5788 5795 5802 5809
5662 5655 5648 5642 5635 5629 5623 5618 5613 5610 5606 5604 5602 5601 5601 5602 5603 5606 5610 5616 5622 5629 5637 5645 5654 5662 5669 5678 5686 5695 5702 5711 5718 5726 5735 5744 5753 5763 5772 5780 5788 5795 5802
5653 5645 5638 5631 5624 5618 5612 5606 5601 5597 5593 5590 5587 5586 5586 5587 5588 5591 5595 5600 5606 5613 5620 5629 5638 5647 5656 5665 5674 5683 5692 5700 5708 5717 5726 5736 5745 5754 5763 5772 5780 5788 5795
5643 5635 5628 5621 5614 5607 5601 5595 5590 5585 5581 5577 5574 5572 5571 5572 5573 5575 5579 5585 5591 5597 5604 5613 5623 5632 5642 5651 5661 5671 5681 5690 5699 5708 5717 5727 5736 5745 5755 5764 5773 5781 5788